Location: *
(41.0833°N, 73.4167°W)
Time: 15:34:41
(UTC+00:00)

NOSS 0 Rocket - Pass Details

Date: 22 October 2019
Orbit: 934 x 956 km, 70.0° (Epoch: 20 November)

Event Time Altitude Azimuth Distance (km) Brightness Sun altitude
Exits shadow 09:02:07 44° 317° (NW) 1,273 4.3 -25.3°
Drops below altitude 10° 09:07:30 10° 14° (NNE) 2,672 6.5 -24.3°
Sets 09:10:11 0° 21° (NNE) 3,624 7.3 -23.8°
